This demonstration page uses our WeatherBlox Daily Observations layout. Learn more.

Left ArrowRight Arrow

Hourly Observations for February 20, 2016

Temp ( °F °C ) Dew Point ( °F °C ) Humidity (%) Winds ( mph kmh ) Pressure ( in mb ) Visibility ( mi km ) Precip ( " mm )
12:53 am 00:53 Mostly Cloudy 36 2.2 27 -2.8 70 70 Calm 29.82 1010 10 16 0.00 0.00
1:53 am 01:53 Cloudy 35 1.7 27 -2.8 72 72 S 5 7 29.83 1010 10 16 0.00 0.00
2:53 am 02:53 Cloudy 36 2.2 29 -1.7 76 76 SW 12 19 29.83 1010 10 16 0.00 0.00
3:53 am 03:53 Mostly Cloudy 35 1.7 29 -1.7 78 78 SW 13 20 29.84 1010 10 16 0.00 0.00
4:53 am 04:53 Cloudy 40 4.4 29 -1.7 65 65 SW 20 31 29.85 1011 10 16 0.00 0.00
5:53 am 05:53 Cloudy 40 4.4 28 -2.2 63 63 SW 14 22 29.89 1012 10 16 0.00 0.00
6:53 am 06:53 Cloudy 40 4.4 28 -2.2 63 63 SW 25 41 29.92 1013 10 16 0.00 0.00
7:53 am 07:53 Cloudy 40 4.4 28 -2.2 63 63 WSW 16 26 29.96 1015 10 16 0.00 0.00
8:53 am 08:53 Cloudy 38 3.3 32 0 79 79 SW 22 35 29.98 1015 10 16 0.00 0.03
9:53 am 09:53 Cloudy 40 4.4 31 -0.6 70 70 SW 24 39 30.00 1016 10 16 0.00 0.00
10:53 am 10:53 Cloudy 41 5 31 -0.6 67 67 SW 30 48 30.01 1016 10 16 0.00 0.00
11:53 am 11:53 Cloudy 42 5.6 31 -0.6 65 65 SW 25 41 30.03 1017 10 16 0.00 0.00
12:53 pm 12:53 Cloudy 45 7.2 26 -3.3 48 48 WNW 23 37 30.02 1017 10 16 0.00 0.00
1:53 pm 13:53 Cloudy 41 5 30 -1.1 65 65 W 18 30 30.07 1018 10 16 0.00 0.03
2:53 pm 14:53 Cloudy 37 2.8 27 -2.8 67 67 NW 15 24 30.11 1020 10 16 0.00 0.03
3:00 pm 15:00 Cloudy 37 3 27 -3 65 65 NW 15 24 30.12 1020 10 16 0.00 0.00
3:53 pm 15:53 Cloudy 35 1.7 25 -3.9 67 67 WNW 14 22 30.16 1021 10 16 0.00 0.00
4:53 pm 16:53 Cloudy 32 0 24 -4.4 73 73 NW 10 17 30.20 1023 10 16 0.00 0.00
5:53 pm 17:53 Cloudy 29 -1.7 22 -5.6 75 75 NNW 13 20 30.24 1024 9 14 0.00 0.03
6:53 pm 18:53 Cloudy 28 -2.2 21 -6.1 75 75 W 10 17 30.27 1025 10 16 0.00 0.00
7:53 pm 19:53 Cloudy 26 -3.3 21 -6.1 81 81 WNW 9 15 30.30 1026 10 16 0.00 0.00
8:53 pm 20:53 Partly Cloudy 25 -3.9 20 -6.7 81 81 W 5 7 30.33 1027 10 16 0.00 0.00
9:53 pm 21:53 Cloudy 26 -3.3 21 -6.1 81 81 W 5 7 30.33 1027 10 16 0.00 0.00
10:53 pm 22:53 Cloudy 26 -3.3 22 -5.6 84 84 WSW 3 6 30.35 1028 10 16 0.00 0.00
11:53 pm 23:53 Mostly Cloudy 25 -3.9 21 -6.1 85 85 Calm 30.34 1027 10 16 0.00 0.00

Powered by AerisWeather